Date,TemperatureHighF,TemperatureAvgF,TemperatureLowF,DewpointHighF,DewpointAvgF,DewpointLowF,HumidityHigh,HumidityAvg,HumidityLow,PressureMaxIn,PressureMinIn,WindSpeedMaxMPH,WindSpeedAvgMPH,GustSpeedMaxMPH,PrecipitationSumIn
2013-2-1,63,50,37,51,44,35,96,80,60,30.25,30.14,13,2,13,0.00
2013-2-2,59,50,43,51,45,39,96,85,74,30.30,30.22,12,2,13,0.00
2013-2-3,56,47,41,47,44,39,96,87,69,30.27,30.15,11,2,11,0.00
2013-2-4,61,47,38,51,43,36,97,87,65,30.20,30.09,11,2,11,0.01
2013-2-5,53,47,42,47,44,41,97,90,76,30.17,30.09,9,1,9,0.01
2013-2-6,56,45,36,46,40,35,96,85,61,30.22,30.14,14,2,14,0.00
2013-2-7,52,43,36,46,39,34,95,86,69,30.21,30.02,12,2,12,0.07
2013-2-8,50,41,35,42,38,33,96,88,71,30.03,29.96,14,2,15,0.05
2013-2-9,54,43,34,36,31,27,93,65,39,30.13,30.01,15,2,15,0.00
2013-2-10,56,44,32,39,34,29,89,71,47,30.14,30.05,15,2,15,0.00
2013-2-11,58,46,37,35,31,28,89,59,33,30.27,30.09,18,2,18,0.00
2013-2-12,59,46,37,42,35,31,83,67,44,30.37,30.26,12,2,13,0.00
2013-2-13,61,47,36,44,39,33,92,74,45,30.36,30.24,14,2,14,0.00
2013-2-14,65,54,40,45,40,36,90,62,42,30.27,30.18,18,4,22,0.00
2013-2-15,67,54,41,51,42,33,83,64,51,30.28,30.23,12,2,13,0.00
2013-2-16,65,54,44,51,42,34,85,67,53,30.26,30.07,12,2,12,0.00
2013-2-17,61,49,40,47,42,37,93,76,52,30.08,29.98,16,2,17,0.00
2013-2-18,50,44,39,44,40,36,94,85,72,30.06,30.00,10,2,12,0.00
2013-2-19,47,41,37,42,38,33,94,87,79,29.96,29.77,18,2,18,0.54
2013-2-20,54,42,32,41,36,30,94,79,54,30.10,29.86,12,2,15,0.00
2013-2-21,56,45,36,40,37,31,95,76,40,30.20,30.08,22,3,22,0.01
2013-2-22,59,46,35,44,37,32,90,73,43,30.29,30.19,16,2,16,0.00
2013-2-23,55,47,38,45,40,31,96,77,51,30.28,30.16,19,3,19,0.02
2013-2-24,58,48,39,33,28,23,72,46,31,30.27,30.19,22,4,24,0.00
2013-2-25,61,47,35,45,36,28,89,67,40,30.30,30.19,12,2,13,0.00
2013-2-26,53,42,35,35,30,23,89,65,32,30.23,30.19,19,3,19,0.00
2013-2-27,66,55,38,42,36,29,82,51,26,30.40,30.27,12,2,12,0.00
2013-2-28,66,52,41,53,46,38,94,80,60,30.46,30.39,13,2,13,0.00